Change the Weather History Date:

Tuesday, March 26, 2013

  Actual Average Record
Temperature  
Mean Temperature 44 °F -  
Max Temperature 57 °F 67 °F 84 °F (2011)
Min Temperature 30 °F 47 °F 30 °F (2013)
Degree Days  
Heating Degree Days 22    
Moisture  
Dew Point 21 °F    
Average Humidity 43    
Maximum Humidity 61    
Minimum Humidity 26    
Precipitation  
Precipitation 0.00 in - - ()
Sea Level Pressure  
Sea Level Pressure 30.39 in    
Wind  
Wind Speed 3 mph (East)    
Max Wind Speed 10 mph    
Max Gust Speed -    
Visibility 10 miles    
Events      
Averages and records for this station are not official NWS values.
T = Trace of Precipitation, MM = Missing Value Source: NWS Daily Summary

Daily Weather History Graph

Daily Weather History Graph

Search for Another Location

Airport or City:

Trip Planner

Search our weather history database for the weather conditions in past years. The results will help you decide how hot, cold, wet, or windy it might be!

Date:

Astronomy

Mar. 26, 2013 Rise Set
Actual Time 7:24 AM CDT 7:45 PM CDT
Civil Twilight 7:00 AM CDT 8:10 PM CDT
Nautical Twilight 6:31 AM CDT 8:39 PM CDT
Astronomical Twilight 6:02 AM CDT 9:08 PM CDT
Moon 7:22 PM CDT (3/26) 6:41 AM CDT (3/26)
Length of Visible Light 13h 10m
Length of Day
12h 20m
Waxing Gibbous, 99% of the Moon is Illuminated
Mar 26
Waxing Gibbous
Mar 27
Full
Apr 2
Last Quarter
Apr 10
New
Apr 18
First Quarter

Hourly Weather History & Observations

Time (CDT) Temp. Windchill Dew Point Humidity Pressure Visibility Wind Dir Wind Speed Gust Speed Precip Events Conditions
12:53 AM 36.0 °F - 18.0 °F 48% 30.41 in 10.0 mi Calm Calm - N/A   Clear
1:53 AM 35.1 °F - 19.0 °F 52% 30.41 in 10.0 mi Calm Calm - N/A   Clear
2:53 AM 33.1 °F 28.7 °F 19.0 °F 56% 30.40 in 10.0 mi NNW 4.6 mph - N/A   Clear
3:53 AM 33.1 °F - 19.9 °F 59% 30.40 in 10.0 mi Calm Calm - N/A   Clear
4:53 AM 30.0 °F 26.5 °F 18.0 °F 61% 30.41 in 10.0 mi NNW 3.5 mph - N/A   Clear
5:53 AM 32.0 °F 27.5 °F 19.0 °F 59% 30.42 in 10.0 mi North 4.6 mph - N/A   Clear
6:53 AM 30.9 °F 24.3 °F 18.0 °F 59% 30.45 in 10.0 mi NNE 6.9 mph - N/A   Clear
7:53 AM 30.9 °F 25.2 °F 19.0 °F 61% 30.48 in 10.0 mi NNE 5.8 mph - N/A   Clear
8:53 AM 36.0 °F - 23.0 °F 59% 30.51 in 10.0 mi Calm Calm - N/A   Clear
9:53 AM 39.9 °F 36.7 °F 19.0 °F 43% 30.51 in 10.0 mi ENE 4.6 mph - N/A   Clear
10:53 AM 42.1 °F 40.2 °F 19.0 °F 40% 30.51 in 10.0 mi ESE 3.5 mph - N/A   Clear
11:53 AM 45.0 °F - 18.0 °F 34% 30.49 in 10.0 mi Calm Calm - N/A   Clear
12:53 PM 48.9 °F - 19.9 °F 32% 30.47 in 10.0 mi Calm Calm - N/A   Clear
1:53 PM 50.0 °F - 19.9 °F 31% 30.43 in 10.0 mi Calm Calm - N/A   Clear
2:53 PM 53.1 °F - 21.0 °F 29% 30.39 in 10.0 mi Variable 3.5 mph - N/A   Clear
3:53 PM 55.9 °F - 21.9 °F 27% 30.35 in 10.0 mi Variable 6.9 mph - N/A   Clear
4:53 PM 57.0 °F - 21.9 °F 26% 30.32 in 10.0 mi Calm Calm - N/A   Clear
5:53 PM 55.9 °F - 21.0 °F 26% 30.31 in 10.0 mi Calm Calm - N/A   Clear
6:53 PM 55.0 °F - 21.9 °F 28% 30.30 in 10.0 mi SE 6.9 mph - N/A   Clear
7:53 PM 53.1 °F - 23.0 °F 31% 30.29 in 10.0 mi SE 10.4 mph - N/A   Clear
8:53 PM 50.0 °F - 24.1 °F 36% 30.29 in 10.0 mi ESE 8.1 mph - N/A   Clear
9:53 PM 48.9 °F - 23.0 °F 36% 30.30 in 10.0 mi ESE 9.2 mph - N/A   Clear
10:53 PM 46.9 °F - 25.0 °F 42% 30.30 in 10.0 mi SE 8.1 mph - N/A   Clear
11:53 PM 46.0 °F 41.0 °F 26.1 °F 46% 30.30 in 10.0 mi SE 10.4 mph - N/A   Clear